Flag for France Weather past 2 weeks in Le Mans, France

50 °F

Partly cloudy.

Feels Like: 46 °F
Forecast: 38 / 49 °F
Wind: 12 mph from Northwest

Location: Le Mans Airport

Current Time: Nov 28, 2015 at 12:25:46 AM

Latest Report: Nov 27, 2015 at 11:30 PM

Visibility: N/A

Pressure: 29.92 "Hg

Humidity: 88%

Dew point: 46 °F

Location of Le MansLocation

Historic Weather in Le Mans — Graph


Le Mans temperature yesterday

Maximum temperature yesterday: 50 °F (at 10:00 PM)
Minimum temperature yesterday: 34 °F (at 7:30 AM)
Average temperature yesterday: 42 °F

Past Weeks' High & Low Weather Summary

High64 °F (Nov 15, 2:30 PM)100% (Nov 27, 10:30 AM)30.54 "Hg (Nov 27, 10:30 AM)
Low27 °F (Nov 22, 8:00 AM)45% (Nov 13, 3:30 PM)29.68 "Hg (Nov 21, 3:30 AM)
Average50 °F81%30.10 "Hg
* Reported Nov 12 11:00 PM — Nov 27 11:00 PM, Le Mans, Weather by CustomWeather, © 2015

Note: Actual official high and low records may vary slightly from our data, if they occured in-between our weather recording intervals... More about our weather records


Le Mans weather history for previous 24 hours

Time TempWeatherWind HumidityBarometerVisibility
11:00 PM
Fri, Nov 27
50 °FDrizzle. Fog.6 mph94%29.92 "Hg3 mi
10:30 PM50 °FDrizzle. Fog.7 mph94%29.89 "Hg2 mi
10:00 PM50 °FLow clouds.6 mph94%29.92 "Hg6 mi
9:30 PM48 °FLow clouds.5 mph100%29.92 "HgN/A
9:00 PM48 °FLow clouds.7 mph100%29.92 "Hg5 mi
8:30 PM48 °FDrizzle. Fog.8 mph94%29.92 "Hg3 mi
8:00 PM48 °FDrizzle. Fog.6 mph94%29.92 "Hg2 mi
7:30 PM48 °FDrizzle. Fog.7 mph94%29.92 "Hg3 mi
7:00 PM46 °FDrizzle. Fog.7 mph93%29.95 "Hg2 mi
6:30 PM46 °FDrizzle. Fog.6 mph93%29.95 "Hg2 mi
6:00 PM46 °FDrizzle. Fog.6 mph93%29.95 "Hg3 mi
5:30 PM46 °FFog.6 mph93%29.95 "Hg3 mi
5:00 PM46 °FMostly cloudy.5 mph93%29.98 "Hg6 mi
4:30 PM46 °FMostly cloudy.5 mph93%29.98 "Hg4 mi
4:00 PM46 °FMostly cloudy.5 mph93%29.98 "Hg4 mi
3:30 PM46 °FLow clouds.6 mph93%30.01 "Hg6 mi
3:00 PM46 °FMostly cloudy.5 mph93%30.01 "Hg5 mi
2:30 PM45 °FLow clouds.5 mph93%30.01 "Hg5 mi
2:00 PM43 °FLow clouds.5 mph100%30.04 "Hg4 mi
1:30 PM43 °FFog.5 mph93%30.04 "Hg3 mi
1:00 PM43 °FFog.5 mph93%30.07 "Hg3 mi
12:30 PM43 °FFog.3 mphN/A30.07 "Hg1 mi
12:00 PM41 °FFog.2 mph93%30.09 "Hg0 mi
11:30 AM39 °FFog.2 mph100%30.09 "Hg0 mi
11:00 AM39 °FFog.3 mph93%30.12 "Hg0 mi
10:30 AM37 °FFog.2 mph100%30.12 "Hg0 mi
10:00 AM37 °FFog.2 mph93%30.12 "Hg0 mi
9:30 AM36 °FFog.1 mph93%30.12 "Hg0 mi
9:00 AM34 °FFog.1 mph93%30.12 "Hg0 mi
7:30 AM34 °FFog.No wind93%30.12 "Hg1 mi
7:00 AM36 °FFog.2 mph93%30.12 "Hg1 mi
6:30 AM36 °FFog.No wind93%30.12 "Hg1 mi
6:00 AM36 °FFog.No wind93%30.12 "Hg0 mi
5:00 AM37 °FFog.No wind93%30.15 "Hg0 mi
4:30 AM37 °FFog.No wind93%30.15 "Hg0 mi
4:00 AM37 °FFog.No wind93%30.15 "Hg0 mi
3:30 AM37 °FFog.No wind93%30.15 "Hg0 mi
3:00 AM37 °FFog.No wind93%30.18 "Hg0 mi
2:30 AM37 °FFog.No wind93%30.18 "Hg0 mi
2:00 AM39 °FFog.No wind87%30.18 "Hg0 mi
1:30 AM39 °FFog.No wind93%30.18 "Hg0 mi
1:00 AM39 °FFog.No wind93%30.18 "Hg1 mi
12:30 AM39 °FFog.1 mph93%30.18 "Hg1 mi
12:00 AM41 °FFog.No wind93%30.18 "Hg1 mi
Weather by CustomWeather, © 2015

See weather overviewHow to use our weather pages